This is the latest recevied weather packets stored in our database for station/object PA3CPS. If no packets are shown the sender has not sent any weather packets the latest 10 day(s).
| Time | Temp. | Humidity | Pressure | Rain* | Wind** | Luminosity | Snow |
|---|---|---|---|---|---|---|---|
| 1777446170 | 10° C | 59% | 1027.5 hPa | 0 mm | - | 378 W/m² | - |
| 1777445866 | 9.44° C | 60% | 1027.4 hPa | 0 mm | - | 396 W/m² | - |
| 1777445566 | 8.89° C | 62% | 1027.3 hPa | 0 mm | - | 320 W/m² | - |
| 1777445265 | 8.33° C | 63% | 1027.4 hPa | 0 mm | - | 195 W/m² | - |
| 1777444964 | 8.33° C | 62% | 1027.3 hPa | 0 mm | - | 346 W/m² | - |
| 1777444663 | 7.78° C | 64% | 1027.3 hPa | 0 mm | - | 329 W/m² | - |
| 1777444361 | 7.78° C | 64% | 1027.2 hPa | 0 mm | - | 148 W/m² | - |
| 1777444061 | 7.22° C | 64% | 1027.3 hPa | 0 mm | - | 56 W/m² | - |
| 1777443755 | 7.22° C | 65% | 1027.2 hPa | 0 mm | - | 158 W/m² | - |
| 1777443454 | 7.22° C | 66% | 1027.3 hPa | 0 mm | - | 158 W/m² | - |
| 1777443152 | 6.67° C | 66% | 1027.2 hPa | 0 mm | - | 255 W/m² | - |
| 1777442851 | 6.67° C | 66% | 1027.2 hPa | 0 mm | - | 213 W/m² | - |
| 1777442548 | 6.67° C | 67% | 1027.1 hPa | 0 mm | - | 181 W/m² | - |
| 1777442248 | 6.11° C | 68% | 1027.2 hPa | 0 mm | - | 169 W/m² | - |
| 1777441945 | 6.11° C | 68% | 1027.2 hPa | 0 mm | - | 63 W/m² | - |
| 1777441645 | 5.56° C | 69% | 1027.1 hPa | 0 mm | - | 32 W/m² | - |
| 1777441343 | 5.56° C | 70% | 1026.9 hPa | 0 mm | - | 60 W/m² | - |
| 1777441028 | 5° C | 70% | 1026.9 hPa | 0 mm | - | 28 W/m² | - |
| 1777440723 | 5° C | 70% | 1026.9 hPa | 0 mm | - | 26 W/m² | - |
| 1777440423 | 4.44° C | 70% | 1026.8 hPa | 0 mm | - | 25 W/m² | - |
| 1777440123 | 4.44° C | 71% | 1026.7 hPa | 0 mm | - | 25 W/m² | - |
| 1777439824 | 4.44° C | 70% | 1026.8 hPa | 0 mm | - | 23 W/m² | - |
| 1777439521 | 4.44° C | 70% | 1026.7 hPa | 0 mm | - | 21 W/m² | - |
| 1777439220 | 4.44° C | 69% | 1026.7 hPa | 0 mm | - | 21 W/m² | - |
| 1777438909 | 3.89° C | 69% | 1026.7 hPa | 0 mm | - | 19 W/m² | - |
* Rain latest hour (hover to see other rain measurements)
** Current wind speed in m/s (hover to see current wind gust speed)